Vorticity
nan nan nan nan nan nan nan nan nan nan nan nan nan nan nan nan nan nan nan nan nan nan nan nan nan nan nan nan nan nan nan nan nan nan nan nan nan nan nan nan nan nan nan nan nan nan nan nan nan nan nan nan nan nan nan nan nan nan nan nan nan nan nan nan nan nan nan nan nan
nan 7 7 6 5 5 6 8 8 8 7 8 8 8 9 9 9 9 8 8 8 8 9 9 8 7 7 7 9 9 9 8 8 8 8 8 8 8 9 9 8 7 7 8 10 11 10 11 12 12 11 10 9 9 8 7 9 9 8 7 9 10 10 11 10 11 11 11 nan
nan 7 6 5 4 5 7 8 7 7 8 9 9 9 9 9 9 9 9 8 8 8 8 8 7 7 7 9 9 9 8 7 8 9 10 9 8 9 9 8 7 8 9 10 10 11 10 12 13 13 12 10 10 10 9 9 10 11 11 12 12 11 11 11 11 11 10 11 nan
nan 8 8 8 8 8 9 8 7 8 10 10 9 9 10 9 9 9 9 8 8 8 7 5 5 7 8 8 7 7 7 8 9 11 11 10 9 9 9 8 8 9 10 11 11 11 12 14 15 13 11 10 11 11 11 9 9 11 13 15 14 12 11 11 10 9 10 10 nan
nan 12 12 11 10 10 10 9 9 10 11 10 9 9 9 9 9 8 7 8 8 6 4 4 7 9 8 6 6 7 8 9 11 11 10 9 9 9 9 9 10 11 12 12 12 12 12 15 17 13 11 11 11 9 7 6 8 11 13 14 14 13 12 10 9 9 9 9 nan
nan 13 11 9 9 10 10 9 9 11 11 10 8 7 8 8 7 6 6 7 6 6 7 10 11 10 8 7 8 8 9 9 9 8 7 9 11 11 11 11 11 12 12 11 11 11 11 15 16 12 10 10 9 7 6 8 10 11 12 11 13 13 12 8 9 9 10 9 nan
nan 9 8 7 9 10 9 9 10 10 11 8 6 7 7 7 5 5 6 8 9 10 12 13 10 9 8 9 9 10 10 9 9 9 11 13 12 12 12 12 12 12 12 11 11 11 11 14 14 11 10 9 8 7 8 9 9 8 8 8 10 10 10 9 8 9 12 10 nan
nan 7 7 9 10 10 9 9 10 10 10 7 5 5 7 7 6 7 9 11 12 12 12 10 8 8 10 11 12 13 14 14 14 14 15 13 12 12 12 12 12 12 11 11 10 10 12 14 12 10 10 10 9 8 7 7 7 6 6 8 9 9 10 11 7 7 10 11 nan
nan 7 8 10 10 9 8 8 9 8 8 6 5 6 8 8 8 10 13 14 13 12 11 10 9 11 13 14 16 17 16 16 15 15 13 11 11 11 11 10 9 10 9 8 8 9 13 14 10 8 7 8 6 6 5 5 5 7 10 13 9 8 8 9 6 6 8 10 nan
nan 7 9 9 6 5 6 8 8 7 7 7 6 8 9 9 10 13 15 14 12 11 11 10 9 11 12 14 15 15 14 13 11 10 10 9 8 8 9 7 6 7 7 7 8 9 12 11 6 4 4 4 4 5 6 6 8 12 17 16 11 11 12 11 8 7 8 9 nan
nan 7 8 7 4 4 7 9 8 8 8 7 7 9 10 11 12 13 13 12 11 10 10 9 9 10 12 12 10 10 10 8 6 6 6 7 7 7 8 7 6 6 7 8 10 11 10 6 2 2 6 7 7 8 9 9 11 14 17 14 13 17 21 19 16 15 15 14 nan
nan 7 7 5 4 7 9 9 10 9 9 8 9 11 12 12 11 12 12 12 11 10 9 8 8 10 12 10 7 7 7 6 7 8 7 7 8 8 8 7 7 7 8 10 12 11 8 5 5 6 9 11 12 10 8 9 12 13 13 11 13 17 19 19 18 18 17 16 nan
nan 6 7 6 7 9 10 11 11 11 11 11 12 13 12 11 11 12 12 11 11 11 9 7 9 10 10 9 8 8 8 7 8 9 9 9 8 8 8 8 7 8 11 13 12 10 8 8 9 11 11 13 12 9 7 8 10 10 9 8 9 10 9 9 9 9 8 10 nan
nan 7 7 7 9 11 12 12 13 12 12 12 12 12 11 11 12 12 11 10 11 11 10 10 10 9 7 8 9 9 9 9 8 9 10 10 9 9 10 9 9 11 14 13 11 10 11 11 11 11 10 11 10 8 6 7 7 7 6 5 4 5 4 3 2 3 3 5 nan
nan 8 9 9 11 12 12 12 14 12 11 11 10 10 11 12 12 11 9 8 10 11 10 10 9 7 6 8 9 10 11 10 10 11 11 11 10 11 11 11 11 13 13 12 11 11 11 11 10 10 10 10 8 7 6 6 6 6 5 4 4 5 5 5 5 5 4 5 nan
nan 8 9 10 10 10 10 12 12 10 9 8 7 9 11 13 12 10 7 9 10 9 7 8 10 9 8 8 9 11 12 11 11 12 12 11 11 11 11 11 11 11 11 11 11 10 10 10 10 9 9 8 8 7 7 7 8 7 7 7 8 8 8 8 8 7 7 7 nan
nan 8 9 9 9 9 9 10 9 8 6 6 7 10 12 12 10 9 8 9 9 8 7 9 11 11 10 9 9 11 11 11 11 12 11 11 10 11 10 10 9 9 9 9 9 9 9 9 9 9 9 8 8 8 9 10 10 9 9 9 9 9 9 9 8 8 8 8 nan
nan 8 9 9 9 9 8 8 8 7 7 8 9 10 10 9 9 9 9 9 8 7 7 10 11 10 9 10 11 11 10 10 10 10 10 9 9 9 9 8 8 8 9 9 9 8 8 9 9 9 9 9 9 9 9 10 10 9 9 9 9 9 9 8 8 8 8 7 nan
nan 8 9 10 10 10 9 9 8 9 10 11 11 9 8 8 9 11 10 8 7 7 8 9 10 9 9 9 10 10 9 9 8 8 9 9 9 8 8 8 8 9 9 9 9 9 9 9 9 9 8 8 8 8 9 9 9 9 9 10 10 10 9 9 9 9 8 7 nan
nan 7 8 10 11 11 10 9 9 10 11 11 9 9 10 12 13 12 11 9 8 7 8 8 9 8 8 8 8 9 10 9 7 7 8 8 8 8 8 9 9 9 9 9 9 9 9 9 9 8 8 8 8 8 9 9 9 10 10 11 10 9 9 10 11 10 10 10 nan
nan 8 8 9 10 10 10 10 10 10 10 9 9 11 14 17 16 13 10 8 7 7 7 8 8 8 7 7 7 8 9 8 7 8 8 8 8 8 9 9 9 9 9 10 10 10 10 9 9 9 8 8 8 9 9 9 9 10 10 10 8 8 9 11 11 12 13 14 nan
nan 10 9 9 10 10 10 11 11 11 11 10 10 13 15 17 14 11 9 7 6 6 7 7 8 8 7 7 7 7 8 7 7 8 8 8 9 9 9 10 9 9 9 11 11 12 12 11 10 9 8 7 7 8 9 9 9 9 9 8 8 8 9 10 11 11 12 14 nan
nan 12 13 13 10 10 10 12 12 12 12 11 11 13 15 14 10 8 7 6 6 6 7 8 8 8 7 7 7 7 7 7 8 8 9 8 9 9 10 10 10 10 12 13 13 14 15 15 12 10 8 7 7 8 9 9 9 9 8 8 9 9 10 10 9 9 9 11 nan
nan 15 15 12 9 10 11 13 13 13 12 11 12 12 12 9 7 6 6 7 7 8 8 8 7 7 8 9 8 8 7 7 8 9 9 9 9 10 11 11 12 12 13 13 14 17 17 15 13 11 9 8 8 9 9 9 8 8 8 8 9 10 10 10 9 9 9 9 nan
nan 14 13 10 10 10 12 13 13 12 11 11 11 10 10 8 7 7 7 7 8 8 8 7 7 9 11 11 10 9 9 9 9 9 9 10 10 11 12 12 12 12 12 15 21 23 20 16 14 13 12 10 9 9 9 8 8 8 8 8 9 10 10 10 10 10 11 11 nan
nan 11 11 11 11 12 14 16 15 13 13 13 11 10 9 9 8 7 7 7 7 8 9 9 10 12 13 12 10 9 10 10 10 9 10 10 11 11 12 12 11 10 11 22 29 25 19 15 15 15 13 11 9 9 9 8 8 8 8 9 10 10 10 10 10 11 12 12 nan
nan 10 10 10 11 15 20 23 20 18 16 14 11 10 9 8 8 7 7 7 8 10 11 12 13 14 12 10 8 9 9 9 9 10 11 11 11 11 12 11 9 11 17 26 25 18 13 11 11 11 11 9 9 9 9 8 8 8 9 10 10 10 9 9 10 11 12 11 nan
nan 11 10 10 15 22 26 23 19 18 17 14 10 9 8 8 7 7 8 8 9 11 12 13 13 12 10 8 7 7 8 8 10 11 11 11 10 10 10 9 7 14 24 25 16 10 7 6 6 5 6 7 8 9 9 9 9 9 10 10 10 10 10 11 12 11 10 9 nan
nan 12 12 14 22 26 24 18 18 18 17 12 8 7 7 8 8 8 8 8 9 10 11 11 11 10 8 6 7 7 8 9 11 11 10 9 9 9 8 7 8 17 27 21 8 5 5 5 5 4 4 5 6 8 9 9 9 9 9 9 8 8 8 9 8 7 7 9 nan
nan 12 13 18 24 23 20 18 21 19 12 6 6 7 7 7 7 8 8 8 9 10 10 9 8 7 7 7 7 7 7 9 10 10 9 9 9 8 8 6 9 19 28 18 3 3 4 5 4 4 3 3 4 6 7 7 7 8 8 8 7 7 7 8 7 7 7 7 nan
nan 13 16 23 24 21 20 23 21 13 5 3 9 10 9 8 8 8 9 9 8 7 7 6 7 7 8 8 7 6 7 9 10 10 9 9 9 9 8 6 10 20 30 18 2 3 4 4 4 4 3 3 4 5 6 6 7 7 7 7 6 7 9 11 11 10 8 7 nan
nan 19 23 27 26 24 23 21 13 8 7 10 13 11 10 8 9 8 8 7 6 6 7 8 10 10 9 8 7 7 9 11 11 10 9 9 9 9 9 7 13 22 33 21 2 3 3 4 4 3 3 3 4 4 5 6 8 8 8 8 9 10 11 11 10 9 10 11 nan
nan 24 27 28 26 23 19 14 10 12 15 17 13 11 9 9 8 7 7 8 8 9 10 11 11 10 10 10 10 10 12 13 11 10 9 9 8 9 10 10 15 23 34 22 4 3 2 3 3 2 2 3 4 5 6 7 9 9 9 9 10 11 11 11 10 10 11 13 nan
nan 24 24 21 18 16 15 17 16 16 15 14 10 9 8 8 6 7 8 9 9 10 11 12 11 11 12 11 11 12 13 12 10 10 10 10 10 10 12 11 15 22 31 22 6 3 2 2 2 2 2 5 5 5 6 8 9 8 7 8 9 10 11 12 12 12 11 14 nan
nan 21 18 16 16 18 21 21 17 14 11 11 9 8 7 7 7 9 10 10 9 10 10 11 11 11 10 10 11 12 11 9 9 10 10 11 11 10 11 10 13 18 26 21 9 5 3 2 2 2 3 5 6 6 7 9 9 7 7 8 9 9 10 11 12 12 12 13 nan
nan 20 19 20 25 25 23 16 13 11 11 9 8 7 7 7 9 10 11 11 10 10 10 10 10 9 9 11 12 10 9 8 10 10 11 11 10 10 10 10 10 11 17 21 18 12 7 4 4 4 4 5 6 7 8 10 9 8 8 9 9 9 10 12 12 12 12 11 nan
nan 22 23 26 27 24 19 13 10 11 10 8 7 7 7 9 11 12 13 11 10 9 9 9 8 9 10 11 10 9 7 9 11 10 10 10 9 8 8 9 10 9 9 15 20 18 15 10 8 6 4 5 7 8 9 10 9 8 8 9 9 9 11 12 11 11 10 8 nan
nan 20 22 23 22 19 15 13 10 9 8 7 7 7 9 11 12 12 11 9 7 7 8 8 9 10 11 11 10 9 9 10 11 10 9 9 8 8 7 10 12 11 8 7 9 13 16 17 16 11 6 5 8 9 9 9 8 8 8 9 9 9 11 11 11 10 8 5 nan
nan 18 20 19 17 14 12 11 9 7 7 6 7 8 10 12 11 10 9 8 6 7 8 9 10 12 12 11 11 11 11 11 11 11 9 8 7 7 9 12 12 10 8 6 6 7 12 19 21 14 7 5 7 8 9 8 8 8 8 9 9 9 10 10 10 10 8 3 nan
nan 19 19 16 13 11 10 8 8 8 8 7 7 9 10 11 10 8 9 8 7 8 10 10 10 12 13 13 12 11 11 12 11 10 9 8 7 9 12 13 10 9 8 7 6 8 11 20 22 15 7 4 6 7 8 9 9 8 8 8 8 9 9 9 10 9 9 7 nan
nan nan nan nan nan nan nan nan nan nan nan nan nan nan nan nan nan nan nan nan nan nan nan nan nan nan nan nan nan nan nan nan nan nan nan nan nan nan nan nan nan nan nan nan nan nan nan nan nan nan nan nan nan nan nan nan nan nan nan nan nan nan nan nan nan nan nan nan nan
CAPE
nan nan nan nan nan nan nan nan nan nan nan nan nan nan nan nan nan nan nan nan nan nan nan nan nan nan nan nan nan nan nan nan nan nan nan nan nan nan nan nan nan nan nan nan 1 1 1 5 4 4 10 7 12 13 13 11 10 3 3 3 nan nan nan nan nan nan nan nan nan
nan nan nan nan nan nan nan nan nan nan nan nan nan nan nan nan nan nan nan nan nan nan nan nan nan nan nan nan nan nan nan nan nan nan nan nan nan nan nan nan nan nan nan 0 2 2 6 12 12 12 19 19 23 19 19 9 13 4 4 3 nan nan nan nan nan nan nan nan nan
nan 0 0 0 1 1 0 nan nan nan nan nan nan nan nan nan nan nan nan nan nan nan nan nan nan nan nan nan nan nan nan nan nan nan nan nan nan nan nan nan 0 nan nan nan 3 3 9 20 14 14 15 33 34 33 33 15 6 7 7 6 1 nan nan nan nan nan nan nan nan
11 7 7 4 5 5 nan nan nan nan nan nan nan nan nan nan nan nan nan nan nan nan nan nan nan nan nan nan nan nan nan nan nan 0 0 1 0 1 1 1 3 4 4 8 20 20 26 29 19 19 24 39 42 41 41 23 10 18 18 17 3 nan nan nan nan nan nan nan nan
26 18 18 16 26 26 3 nan nan nan nan nan nan nan nan nan nan nan nan nan nan nan nan nan nan nan nan nan nan nan nan nan nan 1 1 5 5 5 5 8 8 8 8 11 17 17 40 41 23 23 33 36 51 49 49 35 32 31 31 31 27 0 0 nan nan nan nan nan nan
16 23 23 23 32 32 9 nan nan nan nan nan nan nan nan nan nan nan nan nan nan nan nan nan nan nan nan nan nan nan nan nan nan 2 2 4 4 10 10 15 11 7 7 9 9 9 21 28 23 23 29 37 44 58 58 65 50 51 51 66 74 44 44 nan nan nan nan nan nan
nan nan nan 0 nan nan nan nan nan nan nan nan nan nan nan nan nan nan nan nan nan nan nan nan nan nan nan nan nan nan 0 2 3 6 6 8 21 11 11 8 8 10 10 3 1 1 4 8 23 23 16 8 62 79 79 73 70 71 71 61 66 46 46 1 nan nan nan nan nan
nan nan nan nan nan nan nan nan nan nan nan nan nan nan nan nan nan nan nan nan nan nan nan nan nan 0 0 0 1 1 5 8 6 7 7 15 23 10 10 7 5 1 1 nan nan nan nan 2 25 25 43 46 60 62 62 53 40 54 54 54 49 48 48 20 nan nan nan nan nan
nan nan nan nan nan nan nan nan nan nan nan nan nan nan nan nan nan nan nan nan nan nan nan nan nan nan nan 3 4 4 5 5 7 5 5 2 2 0 0 0 nan nan nan nan nan nan nan nan 26 26 60 65 40 17 17 13 24 47 47 51 43 53 53 37 45 45 6 nan nan
nan nan nan nan nan nan nan nan nan nan nan nan nan nan nan nan nan nan nan nan nan nan nan nan nan nan nan 3 4 4 1 1 nan nan nan nan nan nan nan nan nan nan nan nan nan nan nan nan nan nan nan 2 4 2 2 3 20 24 24 32 24 16 16 18 33 33 88 20 0
nan nan nan nan nan nan nan nan nan nan nan nan nan nan nan nan nan nan nan nan nan nan nan nan nan nan nan nan nan nan nan nan nan nan nan nan nan nan nan nan nan nan nan nan nan nan nan nan nan nan nan nan nan nan nan nan 0 8 8 8 9 8 8 17 27 27 31 30 7
nan nan nan nan nan nan nan nan nan nan nan nan nan nan nan nan nan nan nan nan nan nan nan nan nan nan nan nan nan nan nan nan nan nan nan nan nan nan nan nan nan nan nan nan nan nan nan nan nan nan nan nan nan nan nan nan 1 3 3 3 3 6 6 10 15 15 24 32 19
nan nan nan nan nan nan nan nan nan nan nan nan nan nan nan nan nan nan nan nan nan nan nan nan nan nan nan nan nan nan nan nan nan nan nan nan nan nan nan nan nan nan nan nan nan nan nan nan nan nan nan nan nan nan nan 0 nan 0 0 0 0 2 2 5 6 6 9 14 14
nan nan nan nan nan nan nan nan nan nan nan nan nan nan nan nan nan nan nan nan nan nan nan nan nan nan nan nan nan nan nan nan nan nan nan nan nan nan nan nan nan nan nan nan nan nan nan nan nan nan nan nan 1 0 0 nan nan nan nan nan nan nan nan nan 0 0 1 1 2
nan nan nan nan nan nan nan nan nan nan nan nan nan nan nan nan nan nan nan nan nan nan nan nan nan nan nan nan nan nan nan nan nan nan nan nan nan nan nan nan nan nan nan nan nan nan nan nan nan nan nan 0 nan nan nan nan nan nan nan nan nan nan nan nan nan nan nan nan nan
nan nan nan nan nan nan nan nan nan nan nan nan nan nan nan nan nan nan nan nan nan nan nan nan nan nan nan nan nan nan nan nan nan nan nan nan nan nan nan nan nan nan nan nan nan nan nan nan nan nan nan nan nan nan nan nan nan nan nan nan nan nan nan nan nan nan nan nan nan
nan nan nan nan nan nan nan nan nan nan nan nan nan nan nan nan nan nan nan nan nan nan nan nan nan nan nan nan nan nan nan nan nan nan nan nan nan nan nan nan nan nan nan nan nan nan nan nan nan nan nan nan nan nan nan nan nan nan nan nan nan nan nan nan nan nan nan nan nan
nan nan nan nan nan nan nan nan nan nan nan nan nan nan nan nan nan nan nan nan nan nan nan nan nan nan nan nan nan nan nan nan nan nan nan nan nan nan nan nan nan nan nan nan nan nan nan nan nan nan nan nan nan nan nan nan nan nan nan nan nan nan nan nan nan nan nan nan nan
nan nan nan nan nan nan nan nan nan nan nan nan nan nan nan nan nan nan nan nan nan nan nan nan nan nan nan nan nan nan nan nan nan nan nan nan nan nan nan nan nan nan nan nan nan nan nan nan nan nan nan nan nan nan nan nan nan nan nan nan nan nan nan nan nan nan nan nan nan
7 0 0 nan nan nan nan nan nan nan nan nan nan nan nan nan nan nan nan nan nan nan nan nan nan nan nan nan nan nan nan nan nan nan nan nan nan nan nan nan nan nan nan nan nan nan nan nan nan nan nan nan nan nan nan nan nan nan nan nan nan nan nan nan nan nan nan nan nan
22 8 8 1 nan nan nan nan nan nan nan nan nan nan nan nan nan nan nan nan nan nan nan nan nan nan nan nan nan nan nan nan nan nan nan nan nan nan nan nan nan nan nan nan nan nan nan nan nan nan nan nan nan nan nan nan nan nan nan nan nan nan nan nan nan nan nan nan nan
35 19 19 9 3 3 2 3 3 3 1 nan nan nan nan nan nan nan nan nan nan nan nan nan nan nan nan nan nan nan nan nan nan nan nan nan nan nan nan nan nan nan nan nan nan nan nan nan nan nan nan nan nan nan nan nan nan nan nan nan nan nan nan nan nan nan nan nan nan
42 28 28 14 10 10 nan 3 11 11 6 2 0 nan nan nan nan nan nan nan nan nan nan nan nan nan nan nan nan nan nan nan nan nan nan nan nan nan nan nan nan nan nan nan nan nan nan nan nan nan nan nan nan nan nan nan nan nan nan nan nan nan nan nan nan nan nan nan nan
35 25 25 17 19 19 15 23 26 26 17 7 nan nan nan nan nan nan nan nan nan nan nan nan nan 0 0 0 nan nan nan nan nan nan nan nan nan nan nan nan nan nan nan nan nan nan nan nan nan nan nan nan nan nan nan nan nan nan nan nan nan nan nan nan nan nan nan nan nan
9 6 6 18 23 23 22 30 39 39 20 3 nan nan nan nan nan nan nan nan nan nan nan 0 0 0 0 nan 0 0 nan nan nan nan nan nan nan nan nan nan nan nan nan nan 5 5 6 nan nan nan nan nan nan nan nan nan nan nan nan nan nan nan nan nan nan nan nan nan nan
nan nan nan nan 9 9 34 40 54 54 34 2 nan nan nan nan nan nan nan nan nan 1 1 2 1 3 3 0 nan nan nan nan nan nan nan nan nan nan nan nan nan nan nan nan nan nan nan nan nan nan nan nan nan nan nan nan nan nan nan nan nan nan nan nan nan nan nan nan nan
nan nan nan nan nan nan 15 50 71 71 22 nan nan nan nan nan nan nan nan nan nan nan nan nan 6 1 1 nan nan nan nan nan nan nan nan nan nan nan nan nan nan nan nan nan nan nan nan nan nan nan nan nan nan nan nan nan nan nan nan nan nan nan nan nan nan nan nan nan nan
nan nan nan nan nan nan 11 52 39 39 4 nan nan nan nan nan nan nan nan nan nan 0 0 5 6 nan nan nan nan nan nan nan nan nan nan nan nan nan nan nan nan nan nan nan nan nan nan nan nan nan nan nan nan nan nan nan nan nan nan nan nan nan nan nan nan nan nan nan nan
nan nan nan nan nan nan 31 57 19 19 nan nan nan nan nan nan nan nan nan nan nan 4 4 9 2 nan nan nan nan nan nan nan nan nan nan nan nan nan nan nan nan nan nan nan nan nan nan nan nan nan nan nan nan nan nan nan nan nan nan nan nan nan nan nan nan nan nan nan nan
nan nan nan nan 25 25 64 62 17 17 nan nan nan nan nan nan nan nan nan nan nan 3 3 5 2 4 4 nan nan nan nan nan nan nan nan nan nan nan nan nan nan nan nan nan nan nan nan nan nan nan nan nan nan nan nan nan nan nan nan nan nan nan nan nan nan nan nan nan nan
0 1 1 12 44 44 74 42 3 3 nan nan nan nan nan nan nan nan nan nan nan 0 0 2 5 6 6 0 nan nan nan nan nan nan nan nan nan nan nan nan nan nan nan nan nan nan nan nan nan nan nan nan nan nan nan nan nan nan nan nan nan nan nan nan nan nan nan nan nan
10 14 14 28 53 53 51 18 nan nan nan nan nan nan nan nan nan nan nan nan 0 2 2 3 8 5 5 0 nan nan nan nan nan nan nan nan nan nan nan nan nan nan nan nan nan nan nan nan nan nan nan nan nan nan nan nan nan nan nan nan nan nan nan nan nan nan nan nan nan
17 35 35 62 63 63 26 2 2 2 2 nan nan nan nan nan nan nan nan nan 3 6 6 3 6 2 2 nan nan nan nan nan nan nan nan nan nan nan nan nan nan nan nan nan nan nan nan nan nan nan nan nan nan nan nan nan nan nan nan nan nan nan nan nan nan nan nan nan nan
32 73 73 97 68 68 17 11 13 13 3 nan nan nan nan nan nan nan nan 1 4 3 3 2 1 0 0 nan nan nan nan nan nan nan nan nan nan nan nan nan nan 0 0 nan nan nan nan nan nan nan nan nan nan nan nan nan nan nan nan nan nan nan nan nan nan nan nan nan 0
53 84 84 101 40 40 16 9 2 2 nan nan nan nan nan nan nan 1 1 2 3 2 2 1 nan nan nan nan 0 0 0 nan nan nan nan nan nan nan nan nan nan 1 1 nan nan nan nan nan nan nan nan nan nan nan nan nan nan nan nan nan nan nan nan nan nan nan nan nan nan
82 68 68 67 26 26 14 3 nan nan nan nan nan nan nan nan 0 4 4 nan nan nan nan nan nan 0 0 0 1 1 nan nan nan nan nan nan nan nan nan nan nan 4 4 nan nan nan nan nan nan nan nan nan nan nan nan nan nan nan nan nan nan nan nan nan nan nan nan nan nan
87 54 54 52 24 24 8 nan nan nan nan nan nan nan nan nan 2 1 1 nan nan nan nan nan 0 1 1 1 0 0 nan nan nan nan nan nan nan nan nan nan nan nan nan 0 nan nan nan nan nan nan nan nan nan nan nan nan nan nan nan nan nan nan nan nan nan nan nan nan nan
65 37 37 22 18 18 1 nan nan nan nan nan nan nan nan nan nan nan nan nan nan nan nan nan 0 1 1 1 0 0 nan nan nan nan nan nan nan nan nan nan nan nan nan nan 7 7 12 12 2 2 nan nan nan nan nan nan nan nan nan nan nan nan nan nan nan nan nan nan 1
40 21 21 7 0 0 nan nan nan nan nan nan nan nan nan nan nan nan nan nan nan nan nan 0 1 1 1 nan nan nan nan nan nan nan nan nan nan nan nan nan nan nan nan 0 10 10 20 33 9 9 nan nan nan nan nan nan nan nan nan nan nan nan nan nan nan nan 0 0 17
23 5 5 nan nan nan nan nan nan nan nan nan nan nan nan nan nan nan nan nan nan nan nan 1 1 0 0 nan nan nan nan nan nan nan nan nan nan nan nan nan nan nan nan 2 16 16 29 33 16 16 nan nan nan nan nan nan nan nan nan nan nan nan nan nan nan nan nan nan 18
45 nan nan nan nan nan nan nan nan nan nan nan nan nan nan nan nan nan nan nan nan 1 1 1 1 0 0 nan nan nan nan nan nan nan nan nan nan 3 3 nan nan nan nan 4 24 24 29 38 29 29 0 nan nan nan nan nan nan nan nan nan nan nan nan nan nan nan nan 0 0